Theta_e
320 320 320 320 320 320 320 321 321 321 322 322 322 322 322 323 321 314 309 314 317 323 323 318 317 316 315 311 313 312 300 295 295 296 297 303 301 306 309 306 307 309 310 316 329
319 319 319 319 319 319 319 320 320 321 321 321 321 322 321 322 311 307 316 324 323 323 317 312 310 313 309 308 309 305 299 297 301 302 300 303 303 304 304 304 304 307 311 320 324
319 318 318 318 319 319 319 319 319 320 320 320 321 321 321 319 304 306 323 325 321 324 319 316 314 311 305 307 306 305 298 302 302 304 305 304 304 307 304 301 305 304 308 313 316
318 318 318 317 318 318 318 319 319 319 319 320 320 320 321 311 293 311 326 323 324 322 317 314 311 305 303 301 306 300 303 304 304 305 304 303 306 303 304 305 309 309 311 312 311
318 318 317 317 317 317 317 318 319 319 319 319 319 319 311 300 300 316 325 321 319 317 312 310 307 305 300 301 303 301 302 304 305 305 305 305 302 303 303 308 310 310 311 311 313
317 317 317 317 317 317 317 318 319 319 319 318 318 318 304 294 307 317 317 313 315 314 312 312 308 309 304 302 301 302 302 303 304 303 304 301 302 302 305 308 307 308 309 310 314
317 316 315 314 315 316 317 317 318 319 319 318 318 314 302 299 312 317 312 311 315 313 309 313 313 308 305 301 305 303 299 301 301 302 300 302 298 299 305 305 304 305 306 308 312
313 313 312 312 313 314 315 316 318 318 318 318 318 311 297 306 312 311 312 311 315 315 312 313 313 308 304 305 302 298 298 293 298 300 300 299 293 301 305 302 303 304 306 307 310
311 310 310 311 311 312 314 316 316 317 317 317 312 303 296 312 305 310 312 307 310 312 312 313 311 305 303 298 294 295 290 292 294 299 298 297 294 300 304 303 302 303 305 307 310
309 309 309 309 309 310 312 314 314 313 315 311 305 297 300 298 307 308 311 311 307 308 306 306 305 299 299 295 288 289 290 291 291 296 297 295 295 299 302 302 302 303 304 306 308
308 307 307 307 308 309 311 306 300 298 302 299 299 298 297 305 310 307 310 307 307 304 297 301 296 293 296 297 295 293 291 291 294 297 294 294 294 297 300 301 301 302 303 305 307
307 306 306 306 307 309 308 301 300 300 293 300 298 297 300 306 300 304 310 301 300 294 298 295 291 297 298 296 294 293 291 291 294 295 294 294 293 297 299 299 301 301 302 304 306
306 305 306 306 306 307 303 301 306 305 294 294 296 295 296 300 296 300 305 301 297 294 294 291 293 296 295 293 291 292 290 291 290 293 295 292 292 295 298 298 299 301 303 304 305
304 305 305 305 303 302 302 305 306 303 290 290 291 296 298 299 294 301 307 300 297 291 294 293 297 293 293 291 293 288 294 293 291 290 286 292 285 293 295 296 297 299 301 303 305
303 304 304 304 298 301 302 307 305 300 279 289 292 302 299 293 296 297 305 300 293 293 293 291 292 291 290 291 294 290 294 292 291 289 288 288 286 291 294 293 295 298 299 302 304
304 303 304 301 303 303 306 306 301 287 278 285 292 292 293 294 294 298 299 300 297 293 294 293 295 294 294 295 295 295 292 290 290 289 282 287 286 290 292 293 295 298 300 301 302
304 302 304 303 298 306 307 301 286 281 288 284 286 290 290 289 291 294 293 291 289 285 286 289 290 293 295 291 294 293 289 283 280 279 281 284 284 289 294 295 297 297 299 301 301
303 300 302 300 304 305 302 291 278 282 283 289 288 288 286 288 289 290 290 289 292 289 286 284 283 288 293 292 290 290 289 283 276 278 283 283 282 290 295 297 298 298 299 299 301
299 298 297 296 303 304 295 282 280 282 284 284 287 283 284 286 286 287 288 287 289 291 285 284 283 289 293 293 293 289 285 291 283 283 281 285 288 292 296 295 296 297 298 299 300
293 292 292 295 299 300 290 282 282 283 283 285 280 284 280 282 282 284 284 284 282 286 289 287 281 288 291 294 293 291 293 283 285 277 276 282 283 287 292 293 296 296 297 298 299
291 290 293 296 303 295 283 280 282 285 282 280 281 280 281 279 280 281 283 281 282 284 288 285 285 285 290 287 287 287 286 287 288 285 279 278 283 294 293 295 296 297 298 299 299
289 284 293 295 284 284 279 279 282 282 283 280 281 281 278 278 277 278 279 282 283 283 279 282 281 280 284 291 294 292 289 289 283 281 284 283 285 294 295 296 296 297 298 299 299
286 285 293 292 276 276 279 278 280 279 279 279 278 280 280 276 273 276 277 282 282 280 277 279 278 274 279 285 287 286 289 289 289 287 282 280 283 294 294 295 296 296 298 298 299
287 280 285 286 285 277 276 276 276 281 280 280 279 280 278 276 278 275 276 280 282 281 284 282 276 274 272 279 281 281 285 288 287 283 283 284 286 290 292 294 295 296 298 298 299
286 281 283 277 279 279 278 277 275 275 280 280 278 277 276 273 274 274 277 278 280 282 281 280 273 275 277 276 277 277 276 282 284 286 283 286 286 290 293 295 296 297 297 297 298
284 282 283 281 280 278 278 276 276 277 277 276 275 277 277 274 275 273 276 276 276 279 277 279 272 274 271 275 275 273 276 278 279 285 287 287 287 294 295 296 295 296 296 296 297
290 288 284 281 279 277 277 277 277 279 279 280 278 277 276 277 280 281 281 281 280 277 276 275 273 271 268 273 273 270 274 276 279 284 286 283 289 294 293 293 295 296 296 296 297
Wind_Speed
13 13 13 13 12 12 12 12 12 12 12 12 12 12 12 11 11 4 7 1 4 2 1 1 4 2 2 3 2 2 5 7 5 6 3 6 8 7 7 12 13 14 15 14 13
15 15 14 15 15 14 13 13 12 12 12 12 12 12 12 10 8 10 2 9 5 4 3 2 4 2 3 3 4 7 5 5 5 7 10 11 13 15 15 16 16 16 14 8 10
16 16 17 17 17 16 16 15 14 13 12 11 11 10 10 8 7 2 11 9 5 5 3 2 2 2 5 4 6 5 7 5 10 13 13 17 17 16 17 18 17 16 15 11 13
17 18 18 18 18 18 18 18 16 14 13 11 10 10 11 4 6 5 13 9 7 6 6 5 4 4 4 7 6 10 14 15 14 11 12 15 16 17 17 21 18 17 18 17 14
18 18 19 19 19 19 19 19 17 15 13 11 9 7 5 5 9 8 11 9 8 7 6 5 6 4 6 4 6 15 15 14 16 17 17 18 20 24 25 21 20 20 18 16 15
18 19 20 21 21 21 21 21 19 17 14 11 7 5 4 8 4 11 10 7 7 8 6 6 4 3 6 6 7 4 11 17 17 20 18 19 19 7 13 12 15 17 17 15 14
20 20 21 22 23 23 23 23 20 18 14 10 6 5 6 14 3 11 10 6 7 7 6 5 3 5 1 6 5 10 15 17 16 11 7 6 14 15 17 6 10 10 12 15 16
22 22 23 24 24 25 25 24 20 14 10 8 7 5 9 1 5 9 9 6 6 4 2 3 3 4 5 5 6 7 8 7 3 4 2 5 19 9 8 6 13 16 11 12 12
22 23 24 25 26 26 26 24 11 4 3 7 6 5 8 6 5 11 9 6 8 5 3 5 4 4 3 5 7 5 8 9 11 3 4 6 19 8 10 13 20 16 13 11 11
23 24 25 26 26 26 28 18 3 3 5 4 1 4 5 3 4 7 7 10 4 9 6 7 6 7 6 7 5 4 8 8 11 3 11 21 29 24 19 17 19 17 17 14 14
24 25 26 26 26 27 15 2 4 4 4 8 3 7 4 4 5 7 8 10 6 8 9 8 9 15 14 15 10 8 12 16 16 13 15 15 25 25 23 18 21 20 18 17 17
25 26 27 27 28 25 5 2 3 3 11 14 21 16 8 4 6 8 10 11 10 13 9 6 15 15 9 9 11 13 14 16 13 2 9 19 28 27 14 10 16 18 17 18 17
26 27 27 27 28 3 4 4 6 3 7 9 4 3 1 10 10 13 15 7 8 12 15 16 1 3 10 8 10 12 15 15 11 13 10 15 15 7 10 4 1 8 14 15 16
28 29 28 26 2 5 1 8 6 3 7 5 2 2 3 2 5 1 12 5 7 11 11 13 15 9 7 10 11 12 6 14 10 8 6 7 9 12 6 12 3 5 10 11 12
30 30 26 12 6 3 5 9 4 4 7 5 4 1 2 2 2 2 3 5 10 8 7 6 5 10 11 10 13 5 3 4 5 8 11 4 5 8 7 6 7 7 3 7 6
31 30 19 3 2 5 9 10 3 3 10 1 3 1 2 3 3 3 5 0 2 7 12 16 1 5 7 6 13 4 5 2 2 4 7 6 7 7 4 1 1 4 5 3 1
33 23 6 3 5 12 9 3 2 6 3 4 4 6 3 3 4 7 9 12 8 6 9 7 16 5 9 8 7 12 8 3 5 5 6 1 5 13 5 5 9 9 7 8 4
31 12 4 5 9 7 3 4 8 4 5 9 8 12 5 9 1 1 3 7 12 7 4 7 10 14 14 16 11 22 12 6 6 5 1 3 9 5 2 2 3 5 7 5 1
20 4 6 11 9 4 4 4 5 5 7 13 14 4 2 2 9 5 4 4 7 8 9 8 13 2 11 6 11 9 11 6 5 2 5 6 8 14 12 9 8 3 4 8 8
5 4 9 15 9 3 3 1 2 5 8 4 6 5 6 10 10 9 4 8 10 12 12 5 10 8 4 5 6 7 12 6 6 7 8 6 7 11 3 3 11 9 10 7 3
3 2 11 18 3 2 1 4 3 2 8 5 5 9 9 7 5 7 7 7 16 16 13 11 7 3 6 13 13 8 9 7 4 6 6 6 5 6 9 6 11 9 9 5 1
5 3 11 12 5 3 3 7 7 6 7 4 4 2 3 6 8 9 12 8 17 13 10 8 7 11 18 9 12 19 15 20 10 12 6 9 9 3 4 4 5 7 5 2 3
4 4 5 8 6 6 5 5 4 6 7 5 4 5 7 6 7 9 7 11 18 7 8 9 5 8 15 15 8 12 17 17 19 11 18 10 8 2 4 6 8 7 9 4 4
3 4 3 4 1 3 5 5 6 5 9 5 9 10 7 11 12 10 15 10 16 17 22 11 10 16 16 17 17 10 16 23 24 16 21 19 16 11 8 4 5 6 9 8 7
3 2 2 5 5 9 2 4 10 10 5 7 6 8 13 11 16 19 15 19 20 17 16 5 11 18 22 24 26 21 22 24 20 28 23 23 22 20 18 14 11 8 12 13 9
3 2 2 7 8 9 5 8 12 15 10 12 13 18 17 17 17 19 22 21 17 17 16 14 16 18 23 26 26 29 29 24 25 25 27 27 26 9 11 12 12 14 11 12 14
1 2 3 4 5 6 12 12 16 15 14 16 16 15 17 20 20 19 19 20 21 24 26 21 17 20 25 27 25 24 28 28 27 26 25 24 21 15 19 17 15 16 11 13 15
Wind_Direction
12 9 6 360 352 343 332 324 319 314 311 310 314 317 321 322 310 246 241 165 165 191 139 131 149 104 175 184 222 231 247 256 254 254 275 296 279 272 270 278 283 287 279 291 305
10 7 4 358 353 346 338 329 320 314 311 310 311 316 321 324 292 259 166 158 168 163 195 151 163 157 189 206 206 230 252 254 254 264 278 286 280 286 283 278 274 278 274 267 277
8 3 359 355 349 344 339 330 320 309 304 303 305 309 313 310 284 188 166 171 177 155 144 123 144 205 224 211 200 201 250 283 265 267 278 284 280 277 271 269 265 267 273 273 278
1 357 354 349 345 341 335 329 319 308 300 299 304 310 313 256 293 156 166 166 154 154 156 158 176 200 230 223 216 253 253 268 280 276 279 275 286 274 267 266 268 262 269 275 275
357 353 349 345 340 336 331 326 316 304 294 289 294 304 284 244 253 153 162 159 157 167 188 188 210 222 239 234 248 242 268 275 273 274 269 277 270 271 270 266 262 262 265 259 271
353 349 347 343 339 335 331 326 318 303 285 277 274 281 221 251 98 162 158 163 177 181 180 196 229 233 270 251 236 318 277 279 280 275 278 270 274 270 259 266 259 260 265 266 254
356 351 347 342 337 333 329 325 316 304 285 266 251 223 238 255 172 164 164 186 181 190 182 200 194 215 243 261 279 281 290 287 277 275 252 277 256 234 254 266 268 272 275 268 257
351 346 341 337 333 329 326 323 314 303 273 239 214 199 252 109 168 169 173 148 164 170 180 157 183 242 237 308 260 270 272 295 109 220 227 233 271 257 210 236 290 293 275 272 268
348 344 340 336 332 329 325 320 313 359 123 171 172 235 266 127 192 200 184 176 165 165 161 146 187 248 199 241 268 207 282 271 300 208 276 237 289 274 248 250 283 272 270 267 263
348 344 340 334 331 328 324 314 227 116 111 148 112 228 220 220 167 167 176 161 162 156 148 191 214 235 213 203 249 255 265 260 274 284 276 285 274 277 268 261 252 256 266 256 254
347 343 339 334 330 326 327 305 232 204 203 232 230 271 126 104 155 178 168 162 146 190 202 196 221 221 219 217 258 275 271 275 279 284 295 275 284 285 283 262 245 249 247 243 244
346 342 338 335 331 320 294 36 48 335 292 252 258 270 260 199 195 163 174 187 196 214 193 191 238 249 262 241 237 249 266 275 288 238 292 300 295 293 298 284 247 236 243 246 245
343 339 336 332 327 347 352 38 325 250 263 282 205 237 267 205 227 187 184 190 209 224 213 226 342 13 202 217 220 239 251 272 277 318 260 298 283 301 321 293 210 233 244 249 241
343 337 333 331 289 344 76 341 324 265 282 253 173 99 119 181 206 164 194 194 203 234 216 243 258 226 204 236 220 266 249 263 285 306 298 359 293 308 324 324 254 215 232 241 237
342 335 329 320 310 309 342 328 300 223 296 42 71 97 94 239 94 130 183 210 228 188 185 213 207 199 216 229 193 248 162 218 274 283 310 199 253 273 320 351 37 55 25 233 240
342 339 340 40 246 322 322 316 222 212 246 36 98 46 227 196 157 127 176 300 359 238 238 258 216 225 228 190 201 143 164 199 257 268 253 233 230 277 260 92 76 354 23 75 231
342 344 20 348 344 324 316 250 210 212 21 31 1 357 317 248 204 195 181 190 206 200 217 215 229 215 206 224 193 200 184 230 224 212 256 62 230 261 255 241 284 300 330 318 284
341 340 358 28 319 310 286 202 227 23 356 11 339 308 253 7 44 272 224 235 226 242 276 258 258 188 183 216 194 197 193 213 246 212 136 164 237 256 291 192 257 292 319 328 16
342 341 13 351 338 312 242 210 349 25 341 336 324 313 140 62 342 310 225 264 12 249 249 275 252 149 200 166 174 160 216 230 261 181 263 222 254 276 257 249 238 166 122 99 77
336 313 14 344 325 270 246 32 110 38 342 316 314 1 326 342 329 350 291 36 346 1 340 307 286 233 158 182 206 217 150 166 215 217 233 219 253 248 268 202 158 143 145 141 95
358 340 354 340 287 302 356 30 343 354 8 323 301 294 298 323 310 295 270 80 18 352 336 350 247 173 153 210 194 183 203 220 243 235 242 247 227 194 219 155 167 151 165 165 341
331 19 341 332 55 35 34 338 331 339 360 317 296 338 350 337 297 282 290 324 5 354 352 5 295 261 243 236 240 236 237 210 217 195 249 279 243 165 198 221 205 189 212 151 303
5 318 1 348 38 10 344 309 283 326 345 332 299 6 318 307 308 296 300 313 326 359 360 344 309 297 253 224 209 236 234 244 243 267 236 221 232 204 245 244 225 240 189 257 328
339 344 355 36 45 1 335 336 318 307 293 269 302 300 302 296 289 283 283 292 302 302 299 273 243 254 273 286 333 277 256 233 227 227 237 231 244 200 221 239 202 220 241 275 293
4 71 356 328 327 316 245 274 295 301 287 303 276 264 303 290 292 288 290 303 294 282 284 245 259 273 283 287 290 290 296 293 243 236 239 239 230 238 259 271 287 273 279 292 319
325 320 179 274 286 251 276 276 272 288 271 269 279 286 300 287 285 293 289 280 283 291 269 263 270 278 279 274 276 277 281 275 283 257 247 253 255 242 271 281 277 276 280 295 295
262 266 229 285 241 239 273 268 275 284 279 269 285 284 283 280 291 292 286 281 273 275 271 264 259 260 263 272 277 262 249 259 266 262 250 245 245 243 248 255 253 261 269 265 279